User: anonymous   Login
Location: Fours
(44.3167°N, 6.7000°E)
Time: 07:54:52
(UTC+00:00)
Language:

CZ-2C R/B - Orbit

View from above orbital plane
View from above orbital plane
View from above satellite
View from above satellite

Ground track
Ground track

The orbit data is extracted from the following two-line orbital elements,

1 28480U 04046B   21058.82240218  .00000058  00000-0  37051-4 0  9992
2 28480  98.0573  79.6337 0141753 188.2152 344.7737 14.25742285846800
Epoch (UTC): 27 February 2021 19:44:15
Eccentricity: 0.0141753
inclination: 98.0573°
perigee height: 704 km
apogee height: 908 km
right ascension of ascending node: 79.6337°
argument of perigee: 188.2152°
revolutions per day: 14.25742285
mean anomaly at epoch: 344.7737°
orbit number at epoch: 84680

The dashed part of the orbit path shows where the satellite is in the earth's shadow,  

DLR